Gulkana, AK

8:08 PM AKDT on April 26, 2017 (GMT -0800)
Gulkana

Weather History for PAGK - September, 2012

Change the Weather History Date:

Thursday, September 6, 2012

  Actual Average Record
Temperature  
Mean Temperature 50 °F -  
Max Temperature 55 °F 57 °F 68 °F (1986)
Min Temperature 43 °F 36 °F 19 °F (1996)
Degree Days  
Heating Degree Days 16    
Moisture  
Dew Point 34 °F    
Average Humidity 58    
Maximum Humidity 71    
Minimum Humidity 36    
Precipitation  
Precipitation 0.00 in - - ()
Sea Level Pressure  
Sea Level Pressure 30.01 in    
Wind  
Wind Speed 17 mph (SSE)    
Max Wind Speed 26 mph    
Max Gust Speed 34 mph    
Visibility 10 miles    
Events      
Averages and records for this station are not official NWS values.
T = Trace of Precipitation, MM = Missing Value Source: NWS Daily Summary

Daily Weather History Graph

Daily Weather History Graph

Search for Another Location

Airport or City:

Trip Planner

Search our weather history database for the weather conditions in past years. The results will help you decide how hot, cold, wet, or windy it might be!

Date:

Astronomy

Sep. 06, 2012 Rise Set
Actual Time 6:45 AM AKDT 8:32 PM AKDT
Civil Twilight 5:58 AM AKDT 9:19 PM AKDT
Nautical Twilight 4:57 AM AKDT 10:19 PM AKDT
Astronomical Twilight 3:38 AM AKDT 11:36 PM AKDT
Moon 9:35 PM AKDT (9/6) 3:05 PM AKDT (9/6)
Length of Visible Light 15h 20m
Length of Day
13h 46m
Waning Gibbous, 66% of the Moon is Illuminated
Sep 6
Waning Gibbous
Sep 8
Last Quarter
Sep 15
New
Sep 22
First Quarter
Sep 29
Full

Hourly Weather History & Observations

Time (AKDT) Temp. Windchill Dew Point Humidity Pressure Visibility Wind Dir Wind Speed Gust Speed Precip Events Conditions
12:53 AM 45.0 °F 37.4 °F 35.1 °F 68% 29.84 in 10.0 mi SSE 18.4 mph 24.2 mph N/A   Clear
1:53 AM 45.0 °F 37.4 °F 35.1 °F 68% 29.86 in 10.0 mi SSE 18.4 mph 24.2 mph N/A   Scattered Clouds
2:53 AM 45.0 °F 37.6 °F 35.1 °F 68% 29.89 in 10.0 mi SSE 17.3 mph 27.6 mph N/A   Overcast
3:53 AM 45.0 °F 38.2 °F 35.1 °F 68% 29.92 in 10.0 mi South 15.0 mph 24.2 mph N/A   Overcast
4:53 AM 45.0 °F 37.9 °F 35.1 °F 68% 29.92 in 10.0 mi South 16.1 mph 28.8 mph N/A   Mostly Cloudy
5:53 AM 44.1 °F 37.1 °F 35.1 °F 71% 29.94 in 10.0 mi South 15.0 mph 23.0 mph N/A   Overcast
6:53 AM 44.1 °F 36.8 °F 35.1 °F 71% 29.94 in 10.0 mi South 16.1 mph 23.0 mph N/A   Overcast
7:53 AM 44.1 °F 36.5 °F 35.1 °F 71% 29.96 in 10.0 mi SSE 17.3 mph 23.0 mph N/A   Overcast
8:53 AM 45.0 °F 38.2 °F 35.1 °F 68% 29.98 in 10.0 mi South 15.0 mph - N/A   Overcast
9:53 AM 48.0 °F - 35.1 °F 61% 29.99 in 10.0 mi SSE 16.1 mph - N/A   Mostly Cloudy
10:53 AM 48.9 °F - 34.0 °F 56% 30.00 in 10.0 mi SSE 17.3 mph 23.0 mph N/A   Scattered Clouds
11:53 AM 53.1 °F - 34.0 °F 48% 30.01 in 10.0 mi SSE 16.1 mph 31.1 mph N/A   Mostly Cloudy
12:53 PM 52.0 °F - 33.1 °F 49% 30.03 in 10.0 mi SSE 18.4 mph 28.8 mph N/A   Mostly Cloudy
1:53 PM 55.0 °F - 33.1 °F 43% 30.03 in 10.0 mi SSE 24.2 mph 34.5 mph N/A   Mostly Cloudy
2:53 PM 53.1 °F - 32.0 °F 45% 30.04 in 10.0 mi SSE 23.0 mph 32.2 mph N/A   Mostly Cloudy
3:53 PM 53.1 °F - 34.0 °F 48% 30.06 in 10.0 mi SSE 26.5 mph 29.9 mph N/A   Mostly Cloudy
4:53 PM 52.0 °F - 33.1 °F 49% 30.06 in 10.0 mi SSE 20.7 mph 28.8 mph N/A   Mostly Cloudy
5:53 PM 51.1 °F - 33.1 °F 50% 30.06 in 10.0 mi SSE 17.3 mph 28.8 mph N/A   Scattered Clouds
6:53 PM 51.1 °F - 33.1 °F 50% 30.08 in 10.0 mi SSE 17.3 mph 26.5 mph N/A   Scattered Clouds
7:53 PM 50.0 °F - 33.1 °F 52% 30.09 in 10.0 mi SSE 18.4 mph 24.2 mph N/A   Scattered Clouds
8:53 PM 46.9 °F - 33.1 °F 59% 30.11 in 10.0 mi SSE 9.2 mph - N/A   Scattered Clouds
9:26 PM 46.4 °F 40.1 °F 33.8 °F 62% 30.08 in 10.0 mi SSE 15.0 mph 19.6 mph N/A   Scattered Clouds
9:53 PM 46.0 °F 39.6 °F 34.0 °F 63% 30.12 in 10.0 mi SSE 15.0 mph 23.0 mph N/A   Clear
10:53 PM 44.1 °F 38.1 °F 34.0 °F 68% 30.13 in 10.0 mi SSE 11.5 mph - N/A   Partly Cloudy
11:53 PM 43.0 °F 37.7 °F 34.0 °F 71% 30.14 in 10.0 mi South 9.2 mph - N/A   Clear